Flag for Germany Weather past 2 weeks in Wipperfürth, North Rhine-Westphalia, Germany

Now
54 °F

Passing clouds.


Feels Like: 54 °F
Forecast: 46 / 59 °F
Wind: 2 mph from Southeast

Location: Koeln / Bonn

Current Time: May 29, 2015 at 12:47:09 AM

Latest Report: May 28, 2015 at 11:50 PM


Visibility: N/A

Pressure: 29.98 "Hg

Humidity: 77%

Dew point: 46 °F

Location of WipperfürthLocation

Historic Weather in Wipperfürth — Graph

°F

Wipperfürth temperature yesterday

Maximum temperature yesterday: 68 °F (at 2:20 PM)
Minimum temperature yesterday: 54 °F (at 12:20 AM)
Average temperature yesterday: 59 °F

Past Weeks' High & Low Weather Summary

 TemperatureHumidityPressure
High73 °F (May 18, 4:20 PM)94% (May 15, 7:20 AM)30.33 "Hg (May 15, 7:20 AM)
Low39 °F (May 17, 4:50 AM)26% (May 14, 3:50 PM)29.65 "Hg (May 18, 7:20 PM)
Average55 °F65%30.06 "Hg
* Reported May 13 10:20 PM — May 28 10:50 PM, Wipperfürth, Weather by CustomWeather, © 2015

Note: Actual official high and low records may vary slightly from our data, if they occured in-between our weather recording intervals... More about our weather records

Advertising

Wipperfürth weather history for previous 24 hours

 ConditionsComfort  
Time TempWeatherWind HumidityBarometerVisibility
10:50 PM
Thu, May 28
54 °FPassing clouds.2 mph77%29.98 "HgN/A
10:20 PM54 °FBroken clouds.2 mph77%29.98 "HgN/A
9:50 PM55 °FBroken clouds.3 mph72%29.95 "HgN/A
9:20 PM55 °FPartly sunny.5 mph72%29.95 "HgN/A
8:50 PM57 °FPartly sunny.14 mph67%29.95 "HgN/A
8:20 PM57 °FPartly sunny.14 mph72%29.95 "HgN/A
7:50 PM59 °FSunny.10 mph63%29.95 "Hg10 mi
7:20 PM59 °FPartly sunny.12 mph68%29.95 "HgN/A
6:50 PM64 °FBroken clouds.20 mph46%29.92 "HgN/A
6:20 PM66 °FBroken clouds.10 mph46%29.92 "HgN/A
5:50 PM66 °FPartly sunny.12 mph46%29.92 "HgN/A
5:20 PM64 °FBroken clouds.21 mph49%29.92 "HgN/A
4:50 PM66 °FPartly sunny.15 mph46%29.95 "HgN/A
4:20 PM64 °FBroken clouds.24 mph46%29.95 "HgN/A
3:50 PM66 °FBroken clouds.17 mph43%29.95 "HgN/A
3:20 PM66 °FSunny.17 mph46%29.95 "Hg10 mi
2:50 PM66 °FSunny.20 mph40%29.95 "Hg10 mi
2:20 PM68 °FSunny.18 mph35%29.92 "Hg10 mi
1:50 PM66 °FPartly sunny.15 mph37%29.92 "HgN/A
1:20 PM64 °FPartly sunny.14 mph37%29.95 "HgN/A
12:50 PM66 °FBroken clouds.14 mph43%29.95 "HgN/A
12:20 PM66 °FBroken clouds.13 mph49%29.95 "HgN/A
11:50 AM64 °FBroken clouds.9 mph56%29.95 "HgN/A
11:20 AM63 °FBroken clouds.9 mph59%29.95 "HgN/A
10:50 AM63 °FBroken clouds.13 mph56%29.98 "HgN/A
10:20 AM63 °FPartly sunny.12 mph56%29.98 "HgN/A
9:50 AM61 °FPartly sunny.12 mph59%29.98 "HgN/A
9:20 AM59 °FPartly sunny.9 mph55%29.98 "HgN/A
8:50 AM57 °FPartly sunny.8 mph59%29.98 "HgN/A
8:20 AM55 °FBroken clouds.9 mph63%30.01 "HgN/A
7:50 AM55 °FBroken clouds.10 mph63%30.01 "HgN/A
7:20 AM55 °FPartly sunny.9 mph59%30.01 "HgN/A
6:50 AM54 °FBroken clouds.9 mph63%30.01 "HgN/A
6:20 AM54 °FClear.10 mph63%30.01 "Hg10 mi
5:50 AM54 °FLight rain. Clear.13 mph63%30.01 "HgN/A
5:20 AM54 °FClear.13 mph63%30.01 "Hg10 mi
4:50 AM54 °FClear.10 mph58%30.01 "Hg10 mi
4:20 AM54 °FPartly cloudy.10 mph58%30.01 "HgN/A
3:50 AM54 °FPassing clouds.10 mph58%30.01 "HgN/A
3:20 AM54 °FClear.10 mph58%30.04 "Hg10 mi
2:50 AM54 °FClear.10 mph58%30.04 "Hg10 mi
2:20 AM54 °FClear.10 mph58%30.07 "Hg10 mi
1:50 AM54 °FClear.9 mph58%30.07 "Hg10 mi
1:20 AM54 °FClear.8 mph58%30.07 "Hg10 mi
12:50 AM55 °FClear.10 mph55%30.07 "Hg10 mi
12:20 AM54 °FClear.9 mph58%30.09 "Hg10 mi
Weather by CustomWeather, © 2015

See weather overviewHow to use our weather pages